CZ-3C DEB, 40834

Orbit data source: Space-Track

CZ-3C DEB, 40834 is space debris in HEO originally from a launch on Sun, 31 Oct 2010 UTC launched from the Xichang Space Center, China (XSC). Debris objects in space refer to the collection of defunct objects orbiting the Earth. Examples of debris include non-operational satellites, rocket bodies, and fragments generated from explosions, collisions, or faulty payload assembly.

Loading next visibility...
Identifier
40834, 2010-057BB
Orbit
HEO
Country
Flag of CNCN / PRC
Related business
Manufacturer
CALT
Mission
Spacecraft
Bus & Motor
Unknown
Mass
Unknown
Launch date (UTC)
2010-10-31 (15 years ago)
Launch vehicle
Unknown
Launch site
Xichang Space Center, China (XSC)
Object type
Payload
Rocket body
Debris
Shape & HBR
Unknown shape, 0.3 m
Radar Cross Section
Small (<0.1 m²)

Expand to show TLE details & history
Last TLE update: 1 day ago

TLE from 1 day ago
0 CZ-3C DEB
1 40834U 10057BB  25300.28894010 -.00000191  00000-0 -20997-2 0  9996
2 40834  19.8537 218.2687 7170784 306.4292   7.1728  2.19668551 85391
Epoch: 2025-10-27T06:56Z
TLE epoch observation values (Epoch: 2025-10-27T06:56:04.424Z)
Latitude
-0.00007°
Longitude
78.2952°
Altitude
2,137.404 km
Speed
8.813 km/s
True Right ascension
14h 32m 49s
True Declination
0° 00' 00"
Sunlit
Object was in daylight at epoch
Visualization orbit readout
Latitude
Unknown
Longitude
Unknown
Altitude
Unknown
Speed
Unknown
Apparent Right ascension
Unknown
Apparent Declination
Unknown
Sunlit
N/A
Visualization observer readout
Local Sidereal Time
06:27:34
Azimuth
Unknown
Elevation
Unknown
Doppler factor
Unknown
Orbital elements
Apogee altitude
36,551.288 km
Perigee altitude
695.309 km
Semi-major axis
25,001.436 km
Eccentricity
0.71708
Inclination
19.8537°
RAAN
218.2687°
Arg. of periapsis
306.4292°
True anomaly
54.59297°
Mean anomaly
7.1728°
Eccentric anomaly
23.66228°
Mean motion
0.54903 °/min
Orbital period
655.7 mins
BSTAR
-0.0020997
Loading maneuver chart data...
Computing Atmospheric mass density...
Loading historical data...
Loading historical data...
Loading historical data...
Loading historical data...
Loading historical data...
Loading historical data...
Loading historical data...

Documentation

Showing up to 5 results
|